Skip Page Navigation
NASA JPL Caltech
NASA Logo - Jet Propulsion Laboratory + View the NASA Portal
+ Near-Earth Object (NEO) Program
Search JPL
JPL Home Earth Solar System Stars & Galaxies Technology
JPL Solar System Dynamics
BODIES ORBITS EPHEMERIDES TOOLS PHYSICAL DATA DISCOVERY FAQ SITE MAP
JPL Small-Body Database Browser
Search: [ help ]  
248183 Peisandros (2005 AD28)
Classification: Jupiter Trojan          SPK-ID: 2248183
Ephemeris | Orbit Diagram | Orbital Elements | Physical Parameters | Discovery Circumstances ]

[ show orbit diagram ]
Orbital Elements at Epoch 2457000.5 (2014-Dec-09.0) TDB
Reference: JPL 10 (heliocentric ecliptic J2000)
 Element Value Uncertainty (1-sigma)   Units 
e .05460375018066473 1.8459e-07  
a 5.173993367286597 2.957e-07 AU
q 4.891473926022863 8.7327e-07 AU
i 15.01497553496814 1.2356e-05 deg
node 299.7864773442104 4.055e-05 deg
peri 34.05541892901513 0.00016895 deg
M 87.03525975328594 0.00014783 deg
tp 2455961.226251541559
(2012-Feb-03.72625154)
0.0018245 JED
period 4298.700900136205
11.77
0.00036852
1.009e-06
d
yr
n .08374623132970088 7.1793e-09 deg/d
Q 5.45651280855033 3.1185e-07 AU
  Orbit Determination Parameters
   # obs. used (total)      211  
   data-arc span      4843 days (13.26 yr)  
   first obs. used      2001-10-18  
   last obs. used      2015-01-21  
   planetary ephem.      DE431  
   SB-pert. ephem.      SB431-BIG16  
   condition code      0  
   fit RMS      .61542  
   data source      ORB  
   producer      Otto Matic  
   solution date      2015-Apr-08 00:09:33  

Additional Information
 Earth MOID = 3.891 AU 
 T_jup = 2.929 
[ show covariance matrix ]

Ephemeris | Orbit Diagram | Orbital Elements | Physical Parameters | Discovery Circumstances ]

Physical Parameter Table
Parameter Symbol Value Units Sigma Reference Notes
absolute magnitude H 12.8 mag n/a MPO248545  

248183 Peisandros           Discovered 2005 Jan. 13 by M. Ory at Vicques.
Peisandros was the son of Antimachos. This Trojan warrior and his brother Hippolochos were killed by Agamemnon.
NOTE: some special characters may not display properly (any characters within {} are an attempt to place the proper accent above a character)
Reference: 20110218/MPCPages.arcLast Updated: 2011-02-22
Ephemeris | Orbit Diagram | Orbital Elements | Physical Parameters | Discovery Circumstances ]
ABOUT SSD CREDITS/AWARDS PRIVACY/COPYRIGHT GLOSSARY LINKS
FirstGov 2015-Aug-05 06:27 UT
(server date/time)  
NASA Home Page
Site Manager:   Ryan S. Park
Webmaster  Alan B. Chamberlin